Location: Nashville
(36.1660°N, 86.7840°W)
Time: 07:33:14
(UTC-05:00)

AO-109 - Pass Details

Date: 22 May 2022
Orbit: 477 x 502 km, 60.7° (Epoch: 27 June)

Event Time Altitude Azimuth Distance (km) Brightness Sun altitude
Rises 01:23:01 0° 330° (NNW) 2,601 ? -32.7°
Reaches altitude 10° 01:25:16 10° 337° (NNW) 1,715 ? -32.6°
Enters shadow 01:25:44 13° 339° (NNW) 1,539 ? -32.6°
